Regional Weather Roundup
Issued by NWS

Home | Current Version | Previous Version | Graphics & Text | Print | Product List | Glossary On
Versions: 1 2 3 4 5 6 7 8 9 10 11 12 13 14 15 16 17 18 19 20 21 22 23 24 25 26 27 28 29 30 31 32 33 34 35 36 37 38 39 40 41 42 43 44 45 46 47 48 49 50
000
ASUS43 KOAX 251310
RWRNE

WEATHER ROUNDUP FOR NEBRASKA
NATIONAL WEATHER SERVICE OMAHA NE
800 AM CDT SAT MAR 25 2017

NOTES: SATELLITE DATA IS BEING USED TO AUGMENT CLOUD COVER ABOVE
       12000 FEET.
       "FAIR" INDICATES FEW OR NO CLOUDS BELOW 12,000 FEET WITH NO
       SIGNIFICANT WEATHER AND/OR OBSTRUCTIONS TO VISIBILITY.

  * THESE STATIONS DO NOT REPORT WEATHER SUCH AS RAIN...SNOW OR FOG.

NEZ001>004-019>022-054>056-251400-
NEBRASKA PANHANDLE

CITY           SKY/WX    TMP DP  RH WIND       PRES   REMARKS
SCOTTSBLUFF    CLOUDY    31  27  85 E10       30.02S WCI  22
ALLIANCE       CLOUDY    26  24  92 SE5       30.03S WCI  20
CHADRON        CLOUDY    38  29  70 S8        29.98F WCI  32
KIMBALL        CLOUDY    29  28  96 SW8       30.03F WCI  22
SIDNEY         CLOUDY    21  18  88 SW10      30.05S WCI  10
$$

NEZ057>060-069>072-079>082-251400-
SOUTHWEST NEBRASKA

CITY           SKY/WX    TMP DP  RH WIND       PRES   REMARKS
NORTH PLATTE   CLOUDY    27  24  89 W5        30.06R WCI  22
IMPERIAL       CLOUDY    32  27  81 NW8       30.06R WCI  25
LEXINGTON      CLOUDY    35  33  94 N10G17    30.04F FOG     WCI  27
MCCOOK         CLEAR     32  30  92 W3        30.04R
OGALLALA       CLOUDY    26  25  94 CALM      30.07R
$$

NEZ005>010-023>029-035>040-094-251400-
NORTH CENTRAL NEBRASKA

CITY           SKY/WX    TMP DP  RH WIND       PRES   REMARKS
VALENTINE      FOG       23  20  88 E7        30.06F VSB 1/2 WCI  15
AINSWORTH      FOG       29  29 100 SE3       30.07S VSB<1/4
BROKEN BOW     FOG       33  32  96 N8        30.05S VSB 1/2 WCI  26
O`NEILL        FOG       34  34 100 NE6       30.09F VSB 1/4 WCI  29
ORD            CLOUDY    35  33  92 N8        30.06S FOG     WCI  29
THEDFORD       CLOUDY    23  22  96 CALM      30.07R
$$

NEZ041-046>049-061>064-073>077-083>087-251400-
SOUTH CENTRAL NEBRASKA

CITY           SKY/WX    TMP DP  RH WIND       PRES   REMARKS
GRAND ISLAND   CLOUDY    36  36 100 N16       30.03R WCI  26
AURORA         RAIN      36  35  97 N16G24    30.01S WCI  26
HASTINGS       CLOUDY    37  35  92 N17       30.02R WCI  27
HEBRON         RAIN      38  36  92 N17G23    29.98R WCI  29
HOLDREGE       CLOUDY    36  35  96 N21       30.03R WCI  25
KEARNEY *      CLOUDY    36  34  93 N16       30.03F WCI  26
YORK           LGT RAIN  37  37 100 N24G30    30.01R WCI  26
$$

NEZ011>018-030>034-042>045-251400-
NORTHEAST NEBRASKA

CITY           SKY/WX    TMP DP  RH WIND       PRES   REMARKS
NORFOLK        CLOUDY    35  34  96 N14       30.05S FOG     WCI  26
ALBION         CLOUDY    36  34  91 N12       30.05S FOG     WCI  28
BLAIR          RAIN      39  38  95 N16G25    29.98R WCI  30
FREMONT        RAIN      39  39 100 N8G16     30.01S WCI  33
TEKAMAH        RAIN      39  37  92 N20G28    30.03R FOG     WCI  29
WAYNE          CLOUDY    36  36  99 N13       30.06R FOG     WCI  27
$$

NEZ050>053-065>068-078-088>093-251400-
SOUTHEAST NEBRASKA

CITY           SKY/WX    TMP DP  RH WIND       PRES   REMARKS
LINCOLN        LGT RAIN  40  38  93 N20       30.00R WCI  30
OMAHA EPPLEY   LGT RAIN  40  36  86 N17       29.98R WCI  31
BEATRICE       CLOUDY    40  40  99 N16G25    29.94S WCI  32
FALLS CITY     LGT RAIN  43  42  97 N14G23    29.88R FOG
NEBRASKA CITY  CLOUDY    40  40 100 N18       29.94R FOG     WCI  31
PLATTSMOUTH    LGT RAIN  40  37  88 N12G20    29.96R WCI  33
$$

NEZ044-045-051>053-067-251400-
OMAHA AREA

CITY           SKY/WX    TMP DP  RH WIND       PRES   REMARKS
OMAHA EPPLEY   LGT RAIN  40  36  86 N17       29.98R WCI  31
BLAIR          RAIN      39  38  95 N16G25    29.98R WCI  30
FREMONT        RAIN      39  39 100 N8G16     30.01S WCI  33
MILLARD        RAIN      42  40  95 N6        29.98S
OFFUTT AFB     RAIN      41  37  87 N15G23    29.97R
PLATTSMOUTH    LGT RAIN  40  37  88 N12G20    29.96R WCI  33
WAHOO          RAIN      39  38  94 N17G23    30.00R WCI  30
$$



USA.gov is the U.S. government's official web portal to all federal, state and local government web resources and services.